Regional Weather Roundup
Issued by NWS

Home | Current Version | Previous Version | Graphics & Text | Print | Product List | Glossary On
Versions: 1 2 3 4 5 6 7 8 9 10 11 12 13 14 15 16 17 18 19 20 21 22 23 24 25 26 27 28 29 30 31 32 33 34 35 36 37 38 39 40 41 42 43 44 45 46 47 48 49 50
823
ASUS43 KFSD 281110
RWRSD

WEATHER ROUNDUP FOR SOUTH DAKOTA
NATIONAL WEATHER SERVICE SIOUX FALLS SD
600 AM CDT SAT MAY 28 2016

NOTE: "FAIR" INDICATES FEW OR NO CLOUDS BELOW 12,000 FEET WITH NO
SIGNIFICANT WEATHER AND/OR OBSTRUCTIONS TO VISIBILITY.


SDZ001>005-009-010-012>017-281200-
NORTHWEST AND NORTH CENTRAL SOUTH DAKOTA

CITY           SKY/WX    TMP DP  RH WIND       PRES   REMARKS
BUFFALO          N/A     50  45  83 CALM      29.81R
FAITH            N/A     48  45  89 NW6       29.85R
MOBRIDGE       CLOUDY    53  49  86 NW3       29.79F
$$

SDZ012>016-024>037-041>051-057-063-072>074-281200-
SOUTHWEST AND SOUTH CENTRAL SOUTH DAKOTA

CITY           SKY/WX    TMP DP  RH WIND       PRES   REMARKS
RAPID CTY ARPT CLEAR     43  41  93 NW8       29.87S
PIERRE         CLOUDY    55  53  93 NW9       29.78F
CUSTER         CLEAR     43  39  86 NW5       29.94R
ELLSWORTH AFB  CLEAR     46  44  93 W9        29.87S
PHILIP         PTCLDY    46  45  96 W8        29.84R
PINE RIDGE     FOG       36  35  96 E5        29.89R VSB 3/4
WINNER         FAIR      56  53  90 NW5       29.79R
$$

SDZ004>011-016>023-039-040-281200-
NORTHEAST SOUTH DAKOTA

CITY           SKY/WX    TMP DP  RH WIND       PRES   REMARKS
ABERDEEN       CLOUDY    60  57  89 N7        29.78S
WATERTOWN      CLOUDY    60  58  92 NE7       29.76R FOG
BROOKINGS      CLOUDY    61  59  94 E10       29.74S FOG
SISSETON         N/A     60  57  89 NE9       29.78R
$$

SDZ017-020-022-023-036>040-048>070-281200-
SOUTHEAST SOUTH DAKOTA

CITY           SKY/WX    TMP DP  RH WIND       PRES   REMARKS
SIOUX FALLS    LGT RAIN  61  60  97 N8        29.73S FOG
HURON          CLOUDY    58  57  97 N8        29.75S
CHAMBERLAIN    CLOUDY    60  58  95 N3        29.78R
MITCHELL       RAIN      60  59  96 NW7       29.76S FOG
YANKTON        CLOUDY    59  55  88 NW12      29.71S
$$

ABBREVIATIONS USED IN REMARKS
   TC - TEMPERATURE IN CELSIUS
  WCI - WIND CHILL INDEX
   HX - HEAT INDEX
  VSB - VISIBILITY





USA.gov is the U.S. government's official web portal to all federal, state and local government web resources and services.